Location: Knowlton
(51.2333°N, 1.2667°E)
Time: 22:59:22
(UTC+00:00)

ZACube-1 - Pass Details

Date: 02 December 2021
Orbit: 582 x 665 km, 97.6° (Epoch: 21 January)

Event Time Altitude Azimuth Distance (km) Brightness Sun altitude
Rises 05:30:16 0° 5° (N) 2,987 ? -19.1°
Reaches altitude 10° 05:32:43 10° 354° (N) 2,081 ? -18.7°
Enters shadow 05:34:21 19° 339° (NNW) 1,571 ? -18.5°
